Barksdale AFB, LA

9:08 PM CST on January 23, 2018 (GMT -0600)
Barksdale Air Force Base

Weather History for KBAD - February, 2013

Change the Weather History Date:

Tuesday, February 19, 2013

  Actual Average Record
Temperature  
Mean Temperature 50 °F -  
Max Temperature 61 °F 59 °F 79 °F (2017)
Min Temperature 39 °F 41 °F 24 °F (2006)
Degree Days  
Heating Degree Days 15    
Moisture  
Dew Point 30 °F    
Average Humidity 50    
Maximum Humidity 73    
Minimum Humidity 23    
Precipitation  
Precipitation 0.00 in - - ()
Sea Level Pressure  
Sea Level Pressure 30.24 in    
Wind  
Wind Speed 7 mph (NNE)    
Max Wind Speed 10 mph    
Max Gust Speed -    
Visibility 10 miles    
Events      
Averages and records for this station are not official NWS values.
T = Trace of Precipitation, MM = Missing Value Source: NWS Daily Summary

Daily Weather History Graph

Daily Weather History Graph

Search for Another Location

Airport or City:

Trip Planner

Search our weather history database for the weather conditions in past years. The results will help you decide how hot, cold, wet, or windy it might be!

Date:

Astronomy

Feb. 19, 2013 Rise Set
Actual Time 6:53 AM CST 6:04 PM CST
Civil Twilight 6:28 AM CST 6:29 PM CST
Nautical Twilight 5:59 AM CST 6:57 PM CST
Astronomical Twilight 5:30 AM CST 7:26 PM CST
Moon 12:46 PM CST (2/19) 2:15 AM CST (2/19)
Length of Visible Light 12h 00m
Length of Day
11h 11m
Waxing Gibbous, 67% of the Moon is Illuminated
Feb 19
Waxing Gibbous
Feb 25
Full
Mar 4
Last Quarter
Mar 11
New
Mar 19
First Quarter

Hourly Weather History & Observations

Time (CST) Temp. Windchill Dew Point Humidity Pressure Visibility Wind Dir Wind Speed Gust Speed Precip Events Conditions
12:58 AM 48.4 °F - 37.6 °F 66% 30.10 in 10.0 mi North 6.9 mph - N/A   Clear
1:58 AM 44.6 °F 40.7 °F 36.3 °F 73% 30.12 in 10.0 mi North 6.9 mph - N/A   Clear
2:58 AM 44.6 °F 39.2 °F 35.8 °F 71% 30.13 in 10.0 mi North 10.4 mph - N/A   Clear
3:58 AM 44.4 °F 39.5 °F 34.2 °F 67% 30.15 in 10.0 mi North 9.2 mph - N/A   Clear
4:58 AM 42.3 °F 37.9 °F 31.8 °F 67% 30.17 in 10.0 mi North 6.9 mph - N/A   Clear
5:58 AM 41.4 °F 36.2 °F 30.7 °F 66% 30.21 in 10.0 mi North 8.1 mph - N/A   Clear
6:58 AM 39.4 °F 34.5 °F 30.2 °F 70% 30.24 in 10.0 mi North 6.9 mph - N/A   Clear
7:58 AM 42.1 °F 38.4 °F 30.4 °F 63% 30.28 in 10.0 mi North 5.8 mph - N/A   Clear
8:58 AM 45.5 °F 41.3 °F 29.8 °F 54% 30.30 in 10.0 mi North 8.1 mph - N/A   Clear
9:58 AM 48.2 °F - 30.4 °F 50% 30.33 in 10.0 mi ENE 6.9 mph - N/A   Partly Cloudy
10:58 AM 52.3 °F - 28.0 °F 39% 30.33 in 10.0 mi NNE 5.8 mph - N/A   Clear
11:58 AM 55.4 °F - 26.8 °F 33% 30.31 in 10.0 mi North 6.9 mph - N/A   Clear
12:58 PM 57.9 °F - 25.5 °F 29% 30.30 in 10.0 mi Variable 4.6 mph - N/A   Clear
1:58 PM 59.5 °F - 25.2 °F 27% 30.27 in 10.0 mi North 9.2 mph - N/A   Clear
2:58 PM 61.3 °F - 24.6 °F 25% 30.25 in 10.0 mi Variable 6.9 mph - N/A   Clear
3:58 PM 61.7 °F - 23.7 °F 23% 30.23 in 10.0 mi NE 4.6 mph - N/A   Clear
4:58 PM 61.2 °F - 26.1 °F 26% 30.23 in 10.0 mi NE 5.8 mph - N/A   Clear
6:58 PM 53.6 °F - 27.5 °F 37% 30.23 in 10.0 mi NE 3.5 mph - N/A   Clear
7:58 PM 49.5 °F - 29.5 °F 46% 30.25 in 10.0 mi Calm Calm - N/A   Clear
8:58 PM 44.2 °F - 32.4 °F 63% 30.24 in 10.0 mi NE 2.3 mph - N/A   Clear
9:58 PM 45.5 °F - 32.4 °F 60% 30.25 in 10.0 mi Calm Calm - N/A   Clear
10:58 PM 46.8 °F - 31.5 °F 55% 30.25 in 10.0 mi East 2.3 mph - N/A   Clear
11:58 PM 48.4 °F - 30.9 °F 51% 30.25 in 10.0 mi East 6.9 mph - N/A   Partly Cloudy